Weather in Stavropolskiy

Russia / Stavropol Krai     44°56′41″N   43°32′58″E
temp.,
°C
wind,
m/s
gust,
m/s
humid.,
%
clouds,
%
prec.,
mm/h
press.,
hPa
HPBL,
m
15 may, sat
sat1500:00+16ese47580 0.0 1011113
03:00+14ese126021 0.0 101211
06:00+16se116373 0.0 101236
09:00+23nnw235748 0.0 1013466
12:00+28n34522 0.0 10131173
15:00+29n34471 0.0 10121416
18:00+28ene22535 0.0 101124
21:00+20ese3658100 0.1 1013108
16 may, sun
sun1600:00+18ese2353100 0.0 101248
03:00+15e2253100 0.0 101117
06:00+14ese3664100 0.0 1011149
09:00+20ese4652100 0.0 1011385
12:00+27ese78365 0.0 10091000
15:00+29ese710324 0.0 10071585
18:00+24ese8163732 0.0 1006533
21:00+19e61447100 0.0 1007367
17 may, mon
mon1700:00+17ese5135094 0.0 1006301
03:00+16e4114970 0.0 1005230
06:00+15ese3116098 0.0 1006262
09:00+22ese575047 0.0 1006499
12:00+27ese44410 0.0 1006990
15:00+30ese45305 0.0 10051568
18:00+25e4848100 0.0 1005170
21:00+19nw3469100 0.0 100886
18 may, tue
tue1800:00+18wnw81485100 0.0 1007465
03:00+18wnw81485100 0.0 1009783
06:00+16nw8148797 0.1 1010608
09:00+19wnw81173100 0.1 1011847
12:00+21nw7860100 0.0 10121164
15:00+23nw775219 0.0 10121687
18:00+22nw476094 0.0 1012526
21:00+17wnw47787 0.0 1014111
19 may, wed
wed1900:00+15wnw338425 0.0 101441
03:00+14nw23895 0.0 101529
06:00+16wnw22834 0.0 101686
09:00+21w225967 0.0 1015751
12:00+25sse11450 0.0 10141483
15:00+26se224211 0.0 10131618
18:00+25se3554100 0.0 1012164
21:00+20se346116 0.0 101348